• In Belarus
  • List of Countries
  • For 7 days
  • Water Temperature
  • Satellite Maps
  • Weather Map
  • Weather Widgets
  • user-avatar
    Login

    Hourly Weather Henrykow

    Today, 20 July, Saturday

    Time Temperature Precipitation Wind Pressure Humidity
    00:00 +17°C° 0 mm 2 mps 750 mmHg 87%
    01:00 +18°C° 0 mm 1 mps 750 mmHg 89%
    02:00 +18°C° 0 mm 1 mps 750 mmHg 91%
    03:00 +16°C° 0 mm 1 mps 750 mmHg 92%
    04:00 +16°C° 0 mm 1 mps 750 mmHg 93%
    05:00 +19°C° 0 mm 1 mps 750 mmHg 88%
    06:00 +20°C° 0 mm 1 mps 750 mmHg 82%
    07:00 +22°C° 0 mm 1 mps 750 mmHg 77%
    08:00 +23°C° 0 mm 1 mps 750 mmHg 69%
    09:00 +25°C° 0 mm 1 mps 751 mmHg 62%
    10:00 +27°C° 0 mm 2 mps 751 mmHg 54%
    11:00 +28°C° 0 mm 2 mps 750 mmHg 49%
    12:00 +29°C° 0 mm 2 mps 750 mmHg 45%
    13:00 +29°C° 0 mm 2 mps 750 mmHg 40%
    14:00 +30°C° 0 mm 2 mps 750 mmHg 40%
    15:00 +30°C° 0 mm 2 mps 750 mmHg 40%
    16:00 +30°C° 0 mm 2 mps 750 mmHg 39%
    17:00 +29°C° 0 mm 2 mps 749 mmHg 46%
    18:00 +28°C° 0 mm 2 mps 749 mmHg 52%
    19:00 +27°C° 0 mm 1 mps 749 mmHg 59%
    20:00 +25°C° 0.7 mm 2 mps 749 mmHg 66%
    21:00 +23°C° 0.7 mm 2 mps 749 mmHg 74%
    22:00 +21°C° 0.7 mm 3 mps 749 mmHg 81%
    23:00 +21°C° 1.1 mm 2 mps 749 mmHg 84%

    Tomorrow, 21 July, Sunday

    Time Temperature Precipitation Wind Pressure Humidity
    00:00 +20°C° 1.1 mm 2 mps 749 mmHg 86%
    01:00 +20°C° 1.1 mm 2 mps 749 mmHg 88%
    02:00 +20°C° 0.4 mm 3 mps 749 mmHg 89%
    03:00 +20°C° 0.4 mm 3 mps 749 mmHg 90%
    04:00 +20°C° 0.4 mm 3 mps 749 mmHg 91%
    05:00 +20°C° 0.1 mm 3 mps 749 mmHg 89%
    06:00 +21°C° 0.1 mm 4 mps 749 mmHg 86%
    07:00 +22°C° 0.1 mm 4 mps 750 mmHg 84%
    08:00 +23°C° 0 mm 4 mps 750 mmHg 75%
    09:00 +26°C° 0 mm 4 mps 751 mmHg 67%
    10:00 +27°C° 0 mm 4 mps 751 mmHg 58%
    11:00 +27°C° 0.7 mm 4 mps 751 mmHg 61%
    12:00 +26°C° 0.7 mm 5 mps 751 mmHg 64%
    13:00 +26°C° 0.7 mm 5 mps 751 mmHg 66%
    14:00 +27°C° 0.2 mm 5 mps 752 mmHg 60%
    15:00 +27°C° 0.2 mm 5 mps 752 mmHg 54%
    16:00 +28°C° 0.2 mm 5 mps 752 mmHg 48%
    17:00 +26°C° 0 mm 4 mps 752 mmHg 53%
    18:00 +25°C° 0 mm 4 mps 752 mmHg 59%
    19:00 +24°C° 0 mm 3 mps 753 mmHg 64%
    20:00 +21°C° 0 mm 3 mps 753 mmHg 69%
    21:00 +20°C° 0 mm 3 mps 754 mmHg 74%
    22:00 +19°C° 0 mm 3 mps 755 mmHg 80%
    23:00 +18°C° 0 mm 2 mps 755 mmHg 82%

    Day after tomorrow, 22 July, Monday

    Time Temperature Precipitation Wind Pressure Humidity
    00:00 +18°C° 0 mm 2 mps 755 mmHg 84%
    01:00 +17°C° 0 mm 2 mps 755 mmHg 86%
    02:00 +16°C° 0 mm 2 mps 755 mmHg 89%
    03:00 +16°C° 0 mm 2 mps 756 mmHg 92%
    04:00 +15°C° 0 mm 2 mps 756 mmHg 95%
    05:00 +16°C° 0 mm 2 mps 756 mmHg 89%
    06:00 +17°C° 0 mm 2 mps 756 mmHg 83%
    07:00 +18°C° 0 mm 2 mps 756 mmHg 77%
    08:00 +19°C° 0 mm 3 mps 757 mmHg 70%
    09:00 +21°C° 0 mm 3 mps 757 mmHg 63%
    10:00 +22°C° 0 mm 3 mps 757 mmHg 55%
    11:00 +24°C° 0 mm 3 mps 757 mmHg 53%
    12:00 +25°C° 0 mm 3 mps 757 mmHg 50%
    13:00 +26°C° 0 mm 4 mps 757 mmHg 47%
    14:00 +26°C° 0 mm 3 mps 757 mmHg 47%
    15:00 +26°C° 0 mm 3 mps 756 mmHg 47%
    16:00 +25°C° 0 mm 3 mps 756 mmHg 48%
    17:00 +24°C° 0 mm 3 mps 756 mmHg 53%
    18:00 +23°C° 0 mm 2 mps 756 mmHg 59%
    19:00 +21°C° 0 mm 1 mps 756 mmHg 64%
    20:00 +21°C° 0 mm 1 mps 756 mmHg 65%
    21:00 +20°C° 0 mm 1 mps 757 mmHg 66%
    22:00 +18°C° 0 mm 0 mps 757 mmHg 67%
    23:00 +20°C° 0 mm 1 mps 757 mmHg 67%

    23 July, Tuesday

    Time Temperature Precipitation Wind Pressure Humidity
    00:00 +20°C° 0 mm 1 mps 756 mmHg 67%
    01:00 +19°C° 0 mm 1 mps 756 mmHg 67%
    02:00 +19°C° 0 mm 1 mps 756 mmHg 69%
    03:00 +19°C° 0 mm 1 mps 756 mmHg 70%
    04:00 +19°C° 0 mm 1 mps 756 mmHg 72%
    05:00 +19°C° 0 mm 2 mps 756 mmHg 69%
    06:00 +19°C° 0 mm 2 mps 756 mmHg 67%
    07:00 +20°C° 0 mm 2 mps 756 mmHg 64%
    08:00 +23°C° 0 mm 2 mps 756 mmHg 60%
    09:00 +25°C° 0 mm 2 mps 756 mmHg 56%
    10:00 +26°C° 0 mm 2 mps 756 mmHg 52%
    11:00 +27°C° 0 mm 2 mps 756 mmHg 49%
    12:00 +29°C° 0 mm 3 mps 755 mmHg 46%
    13:00 +30°C° 0 mm 3 mps 755 mmHg 43%
    14:00 +30°C° 0 mm 3 mps 755 mmHg 43%
    15:00 +30°C° 0 mm 3 mps 755 mmHg 43%
    16:00 +30°C° 0 mm 3 mps 754 mmHg 42%
    17:00 +29°C° 0 mm 3 mps 754 mmHg 48%
    18:00 +28°C° 0 mm 2 mps 754 mmHg 54%
    19:00 +26°C° 0 mm 2 mps 754 mmHg 60%
    20:00 +25°C° 0 mm 1 mps 754 mmHg 64%
    21:00 +23°C° 0 mm 1 mps 754 mmHg 69%
    22:00 +21°C° 0 mm 1 mps 754 mmHg 74%
    23:00 +21°C° 0 mm 1 mps 754 mmHg 78%

    24 July, Wednesday

    Time Temperature Precipitation Wind Pressure Humidity
    00:00 +20°C° 0 mm 1 mps 754 mmHg 82%
    01:00 +17°C° 0 mm 0 mps 754 mmHg 85%
    02:00 +17°C° 0 mm 0 mps 754 mmHg 87%
    03:00 +17°C° 0 mm 0 mps 754 mmHg 89%
    04:00 +16°C° 0 mm 0 mps 754 mmHg 91%
    05:00 +18°C° 0 mm 0 mps 754 mmHg 84%
    06:00 +20°C° 0 mm 0 mps 754 mmHg 78%
    07:00 +24°C° 0 mm 1 mps 754 mmHg 71%
    08:00 +25°C° 0 mm 1 mps 754 mmHg 62%
    09:00 +27°C° 0 mm 1 mps 754 mmHg 54%
    10:00 +29°C° 0 mm 1 mps 754 mmHg 45%
    11:00 +30°C° 0 mm 1 mps 754 mmHg 41%
    12:00 +31°C° 0 mm 2 mps 754 mmHg 37%
    13:00 +32°C° 0 mm 2 mps 754 mmHg 33%
    14:00 +32°C° 0 mm 2 mps 754 mmHg 33%
    15:00 +32°C° 0 mm 2 mps 753 mmHg 34%
    16:00 +32°C° 0 mm 2 mps 753 mmHg 34%
    17:00 +30°C° 0 mm 2 mps 753 mmHg 41%
    18:00 +29°C° 0 mm 1 mps 753 mmHg 48%
    19:00 +28°C° 0 mm 1 mps 753 mmHg 55%
    20:00 +26°C° 0 mm 2 mps 753 mmHg 60%
    21:00 +25°C° 0 mm 2 mps 754 mmHg 66%
    22:00 +23°C° 0 mm 2 mps 754 mmHg 71%
    23:00 +23°C° 0 mm 2 mps 754 mmHg 74%

    25 July, Thursday

    Time Temperature Precipitation Wind Pressure Humidity
    00:00 +23°C° 0 mm 2 mps 754 mmHg 77%
    01:00 +22°C° 0 mm 1 mps 754 mmHg 80%
    02:00 +22°C° 0 mm 1 mps 754 mmHg 82%
    03:00 +21°C° 0 mm 1 mps 754 mmHg 83%
    04:00 +21°C° 0 mm 1 mps 754 mmHg 85%
    05:00 +22°C° 0 mm 1 mps 754 mmHg 79%
    06:00 +24°C° 0 mm 2 mps 754 mmHg 74%
    07:00 +25°C° 0 mm 2 mps 754 mmHg 69%
    08:00 +27°C° 0 mm 2 mps 754 mmHg 63%
    09:00 +29°C° 0 mm 3 mps 755 mmHg 57%
    10:00 +30°C° 0 mm 3 mps 755 mmHg 51%
    11:00 +31°C° 0 mm 3 mps 754 mmHg 47%
    12:00 +33°C° 0 mm 3 mps 754 mmHg 44%
    13:00 +34°C° 0 mm 3 mps 754 mmHg 40%
    14:00 +34°C° 0 mm 3 mps 754 mmHg 40%
    15:00 +34°C° 0 mm 3 mps 753 mmHg 39%
    16:00 +34°C° 0 mm 3 mps 753 mmHg 38%
    17:00 +33°C° 0 mm 3 mps 753 mmHg 43%
    18:00 +30°C° 0 mm 3 mps 753 mmHg 49%
    19:00 +29°C° 0 mm 2 mps 753 mmHg 54%
    20:00 +27°C° 0 mm 2 mps 753 mmHg 58%
    21:00 +26°C° 0 mm 2 mps 753 mmHg 63%
    22:00 +24°C° 0 mm 2 mps 753 mmHg 67%
    23:00 +24°C° 0 mm 2 mps 753 mmHg 70%
    Show more